Vienna, OH

5:56 AM EST on February 09, 2016 (GMT -0500)
Youngstown-Warren Regional

Weather History for KYNG - November, 2013

Change the Weather History Date:

Wednesday, November 6, 2013

  Actual Average Record
Temperature  
Mean Temperature 55 °F 45 °F  
Max Temperature 68 °F 53 °F 74 °F (1975)
Min Temperature 42 °F 37 °F 17 °F (1951)
Degree Days  
Heating Degree Days 10 20  
Month to date heating degree days 113 117  
Since 1 July heating degree days 671 738  
Cooling Degree Days 0 0  
Month to date cooling degree days 0 0  
Year to date cooling degree days 630 544  
Growing Degree Days 5 (Base 50)    
Moisture  
Dew Point 45 °F    
Average Humidity 71    
Maximum Humidity 93    
Minimum Humidity 48    
Precipitation  
Precipitation 0.31 in 0.11 in 0.52 in (2014)
Month to date precipitation 0.63 0.63  
Year to date precipitation 33.16 33.37  
Snow  
Snow 0.00 in 0.00 in - ()
Month to date snowfall 0.0 0.3  
Since 1 July snowfall 1.2 1.1  
Since 1 September snowfall 1.2 1.1  
Snow Depth 0.00 in    
Sea Level Pressure  
Sea Level Pressure 30.05 in    
Wind  
Wind Speed 11 mph (SSW)    
Max Wind Speed 21 mph    
Max Gust Speed 29 mph    
Visibility 8 miles    
Events Rain    
T = Trace of Precipitation, MM = Missing Value Source: NWS Daily Summary

Daily Weather History Graph

Daily Weather History Graph

Search for Another Location

Airport or City:

Trip Planner

Search our weather history database for the weather conditions in past years. The results will help you decide how hot, cold, wet, or windy it might be!

Date:

Astronomy

Nov. 06, 2013 Rise Set
Actual Time 7:00 AM EST 5:11 PM EST
Civil Twilight 6:31 AM EST 5:40 PM EST
Nautical Twilight 5:58 AM EST 6:13 PM EST
Astronomical Twilight 5:26 AM EST 6:46 PM EST
Moon 10:14 AM EST (11/6) 8:13 PM EST (11/6)
Length of Visible Light 11h 09m
Length of Day
10h 11m
Waxing Crescent, 13% of the Moon is Illuminated
Nov 6
Waxing Crescent
Nov 10
First Quarter
Nov 17
Full
Nov 25
Last Quarter
Dec 2
New

Hourly Weather History & Observations

Time (EST) Temp. Windchill Dew Point Humidity Pressure Visibility Wind Dir Wind Speed Gust Speed Precip Events Conditions
12:51 AM 43.0 °F 37.7 °F 27.0 °F 53% 30.30 in 10.0 mi SE 9.2 mph - N/A   Mostly Cloudy
1:51 AM 44.1 °F 38.6 °F 27.0 °F 51% 30.27 in 10.0 mi SE 10.4 mph - N/A   Mostly Cloudy
2:51 AM 44.1 °F 39.5 °F 28.0 °F 53% 30.25 in 10.0 mi SE 8.1 mph - N/A   Mostly Cloudy
3:51 AM 44.1 °F 38.6 °F 28.0 °F 53% 30.23 in 10.0 mi SSE 10.4 mph - N/A   Mostly Cloudy
4:51 AM 45.0 °F 40.1 °F 30.0 °F 56% 30.22 in 10.0 mi SSE 9.2 mph - N/A   Scattered Clouds
5:51 AM 44.1 °F 39.5 °F 30.9 °F 60% 30.22 in 10.0 mi SSE 8.1 mph - N/A   Mostly Cloudy
6:51 AM 45.0 °F 40.1 °F 33.1 °F 63% 30.19 in 10.0 mi SSE 9.2 mph - N/A   Overcast
7:51 AM 46.0 °F 42.5 °F 35.1 °F 66% 30.18 in 10.0 mi South 6.9 mph - N/A   Mostly Cloudy
8:51 AM 51.1 °F - 39.0 °F 63% 30.17 in 10.0 mi South 8.1 mph - N/A   Overcast
9:51 AM 57.0 °F - 42.1 °F 57% 30.14 in 10.0 mi South 10.4 mph - N/A   Overcast
10:51 AM 57.0 °F - 42.1 °F 57% 30.13 in 10.0 mi South 11.5 mph - N/A   Overcast
11:51 AM 57.9 °F - 44.1 °F 60% 30.11 in 10.0 mi South 8.1 mph - N/A   Overcast
12:51 PM 64.0 °F - 46.0 °F 52% 30.05 in 10.0 mi South 11.5 mph 18.4 mph N/A   Overcast
1:51 PM 66.9 °F - 46.9 °F 49% 30.02 in 10.0 mi SSW 15.0 mph 24.2 mph N/A   Overcast
2:51 PM 68.0 °F - 48.9 °F 50% 29.99 in 10.0 mi SSW 16.1 mph 21.9 mph N/A   Overcast
3:51 PM 66.9 °F - 48.9 °F 52% 29.96 in 10.0 mi South 17.3 mph 24.2 mph N/A   Overcast
4:51 PM 66.9 °F - 48.9 °F 52% 29.94 in 10.0 mi SSW 11.5 mph 21.9 mph 0.00 in   Overcast
5:51 PM 63.0 °F - 52.0 °F 67% 29.95 in 8.0 mi SSW 12.7 mph - 0.01 in Rain Light Rain
6:51 PM 61.0 °F - 53.1 °F 75% 29.96 in 8.0 mi WSW 10.4 mph - 0.00 in   Light Drizzle
7:51 PM 57.9 °F - 55.0 °F 90% 29.96 in 6.0 mi WSW 11.5 mph - 0.02 in Rain Light Rain
8:02 PM 57.2 °F - 55.4 °F 94% 29.95 in 2.5 mi SW 15.0 mph - 0.02 in Rain Rain
8:19 PM 57.2 °F - 55.4 °F 94% 29.93 in 2.5 mi SSW 16.1 mph 24.2 mph 0.07 in Rain Light Rain
8:40 PM 57.2 °F - 55.4 °F 94% 29.94 in 6.0 mi SW 15.0 mph 21.9 mph 0.08 in Rain Light Rain
8:51 PM 57.9 °F - 55.9 °F 93% 29.94 in 6.0 mi SW 16.1 mph 19.6 mph 0.09 in Rain Light Rain
9:51 PM 57.9 °F - 55.9 °F 93% 29.91 in 8.0 mi SW 8.1 mph - 0.00 in Rain Light Rain
10:51 PM 57.9 °F - 55.9 °F 93% 29.89 in 8.0 mi SSW 9.2 mph - 0.03 in Rain Rain
11:22 PM 57.2 °F - 55.4 °F 94% 29.89 in 2.0 mi WNW 9.2 mph - 0.07 in Rain Heavy Rain
11:37 PM 57.2 °F - 55.4 °F 94% 29.89 in 2.0 mi West 11.5 mph - 0.13 in Rain Light Rain
11:41 PM 57.2 °F - 55.4 °F 94% 29.89 in 4.0 mi WSW 11.5 mph - 0.14 in Rain Light Rain
11:51 PM 57.9 °F - 55.9 °F 93% 29.89 in 4.0 mi West 10.4 mph - 0.15 in Rain Light Rain